RH
78 77 92 87 85 92 92 92 93 94 92 90 89 89 89 89 90 90 94 94 90 91 90 90 87 86 88
84 86 93 88 86 87 87 92 96 92 94 93 92 90 90 93 94 95 96 97 96 94 92 91 91 91 87
92 92 95 94 90 93 93 93 94 96 95 95 95 94 94 95 96 97 98 99 99 99 98 98 94 91 91
87 90 91 91 93 92 94 98 98 97 98 97 97 98 97 98 99 100 99 98 97 97 97 98 98 96 94
90 92 94 99 96 95 98 95 96 97 98 99 99 99 99 100 100 100 100 99 99 99 98 98 98 97 97
94 97 94 95 94 96 98 100 99 96 99 97 99 99 99 99 98 97 98 98 99 99 99 99 99 99 98
97 95 94 93 94 98 99 99 98 97 99 99 99 99 99 99 97 97 97 98 98 97 97 97 99 98 98
98 98 98 98 99 99 99 99 99 99 99 100 99 99 99 99 98 97 97 97 96 97 98 99 99 99 99
90 91 92 92 93 98 99 100 99 99 99 98 100 99 99 99 98 98 98 98 98 98 98 97 96 96 97
93 92 92 93 93 97 99 100 100 100 98 99 100 99 100 99 99 97 97 96 96 96 96 94 94 96 98
94 95 94 95 96 96 97 100 100 100 98 99 100 100 100 100 99 99 99 98 97 97 92 93 93 94 98
96 97 99 99 98 96 95 96 97 99 98 100 100 100 100 100 99 99 98 98 98 99 99 92 91 91 92
96 97 98 98 96 95 92 90 91 93 94 100 100 100 100 100 100 100 99 98 97 97 96 95 97 96 95
95 95 98 96 96 97 96 95 93 93 92 97 98 100 100 98 98 99 98 98 96 94 93 90 90 90 90
98 99 98 98 98 98 98 98 97 98 99 95 94 90 92 95 96 94 92 92 97 96 91 97 94 91 90
98 98 98 98 98 98 97 98 97 98 98 98 97 94 95 90 85 94 96 96 98 95 96 98 98 92 87
98 98 98 98 99 98 98 98 97 98 99 98 98 97 99 97 97 77 95 98 97 94 96 98 98 92 86
Wind_Speed
9 9 7 10 8 7 8 9 8 15 20 21 20 21 21 21 20 19 19 19 20 22 22 21 21 21 21
10 9 10 8 9 9 7 6 7 12 16 18 19 19 19 18 18 17 16 16 16 19 20 21 19 16 18
10 5 6 5 8 6 8 8 7 13 15 17 18 18 17 15 14 14 14 13 14 13 13 15 16 15 16
13 10 8 7 6 7 6 4 6 4 9 11 10 13 13 12 13 11 11 11 11 13 14 12 11 11 13
11 10 8 4 6 3 6 4 4 4 4 3 4 4 4 6 7 10 9 10 11 13 14 13 13 15 17
10 8 9 6 5 6 4 2 3 1 3 4 1 2 3 3 4 4 3 3 4 8 9 11 13 15 17
11 11 10 7 5 5 5 4 3 2 1 2 2 3 3 3 4 4 4 3 4 4 6 10 14 18 19
5 5 4 6 3 0 1 1 1 2 1 3 2 2 1 3 8 5 3 2 2 1 1 3 5 12 15
6 7 8 9 6 2 3 3 3 4 2 4 2 2 2 3 4 14 10 9 9 8 11 9 11 17 17
2 4 6 6 7 3 3 5 3 1 3 3 3 3 2 2 4 5 4 16 17 16 15 13 11 6 7
2 3 4 5 5 5 4 2 2 1 1 3 2 3 3 2 2 4 4 4 5 8 18 19 17 12 6
2 2 2 3 4 4 6 6 6 5 3 3 2 3 3 2 2 2 4 5 4 5 5 10 16 18 16
2 1 0 2 4 3 4 4 8 9 8 4 1 2 3 3 4 2 2 4 4 4 5 5 5 4 3
1 1 2 1 2 3 2 4 4 5 9 11 8 4 3 5 4 3 3 3 2 3 2 3 4 4 4
1 2 1 1 2 2 2 3 4 2 4 6 9 13 10 5 6 5 4 3 3 2 4 2 3 3 4
1 1 2 2 2 3 4 4 4 3 3 3 4 4 5 9 11 4 3 2 2 3 3 2 2 2 3
2 1 2 3 4 2 3 3 3 3 3 2 4 3 4 3 1 11 4 2 2 3 3 2 1 3 3
Wind_Direction
264 251 232 242 246 241 242 248 251 245 251 254 246 243 244 245 243 236 228 225 230 222 221 227 236 240 243
266 258 223 235 251 256 255 234 242 249 248 250 250 246 242 236 232 228 226 224 220 220 225 225 222 228 241
271 250 223 220 248 250 258 267 258 244 251 252 247 238 236 230 225 226 220 212 205 209 213 222 225 228 238
270 253 238 235 224 251 266 237 254 235 243 249 247 233 226 222 214 204 207 211 217 218 221 228 228 231 240
267 242 237 209 230 227 236 260 264 239 244 231 236 231 230 227 242 206 210 222 224 232 232 231 234 237 242
266 264 237 219 213 225 224 235 264 295 228 247 283 74 17 354 137 122 155 183 248 256 254 247 245 240 241
268 264 257 227 205 225 217 214 222 263 143 255 15 85 30 7 72 86 113 153 171 226 247 261 252 243 240
300 315 332 336 317 295 240 252 338 247 174 222 97 71 45 26 19 50 55 213 193 147 326 330 299 255 238
4 359 354 355 346 299 230 189 234 231 208 140 136 97 28 13 359 38 66 73 76 92 88 72 77 83 74
341 360 5 354 4 5 314 232 175 320 203 126 135 139 83 9 16 13 29 57 67 69 71 67 59 72 78
38 19 15 10 3 8 1 275 173 169 47 112 153 125 85 123 44 15 26 28 45 51 59 58 61 65 59
69 41 22 355 357 15 30 44 49 69 12 40 138 135 123 111 129 37 33 26 38 48 40 59 58 65 72
171 156 42 318 335 6 6 14 56 41 27 25 59 85 73 94 128 129 108 25 31 52 43 48 52 34 61
191 125 319 5 38 352 26 358 32 28 27 34 45 47 70 49 83 98 59 96 24 40 61 53 41 35 49
179 134 100 61 45 360 22 25 66 31 2 12 39 67 65 59 76 66 73 73 12 19 46 24 24 31 29
98 81 100 88 71 37 48 60 81 21 29 351 354 36 33 50 60 84 32 62 354 34 51 76 348 342 17
89 98 109 76 100 78 84 77 66 48 21 7 33 83 80 106 79 48 125 7 12 27 32 44 238 286 308